Location: Newark
(37.9000°S, 166.5167°W)
Time: 14:35:59
(UTC+00:00)

Envisat - Pass Details

Date: 22 January 2020
Orbit: 764 x 766 km, 98.1° (Epoch: 28 February)

Event Time Altitude Azimuth Distance (km) Brightness Sun altitude
Rises 07:14:05 0° 188° (S) 3,266 6.9 -8.9°
Reaches altitude 10° 07:17:28 10° 211° (SSW) 2,330 6.7 -9.4°
Maximum altitude 07:20:06 14° 243° (WSW) 2,037 6.6 -9.8°
Drops below altitude 10° 07:22:44 10° 274° (W) 2,317 6.3 -10.3°
Sets 07:26:05 0° 298° (WNW) 3,233 6.6 -10.8°
